Home   Weather   50°25'N, 4°06'W   Past weeks
Flag for United Kingdom

Past Weather in 50°25'N, 4°06'W, United Kingdom — Yesterday and Last 2 Weeks

Now
57 °F

Drizzle. Cloudy.


Feels Like: 56 °F
Forecast: 60 / 52 °F
Wind: 6 mph from Southwest

Location: Plymouth

Current Time: Jun 19, 2019 at 10:43:43 am

Latest Report: Jun 19, 2019 at 9:00 am


Visibility: 0 mi

Pressure: 29.80 "Hg

Humidity: 99%

Dew Point: 57 °F

Location of 50°25'N, 4°06'WLocation

Past Weather in 50°25'N, 4°06'W — Graph

°F

50°25'N, 4°06'W Temperature Yesterday

Maximum temperature yesterday: 61 °F (at 5:00 pm)
Minimum temperature yesterday: 53 °F (at 5:00 am)
Average temperature yesterday: 57 °F

High & Low Weather Summary for the Past Weeks

 TemperatureHumidityPressure
High63 °F (Jun 6, 2:00 pm)99% (Jun 13, 8:00 am)30.18 "Hg (Jun 13, 8:00 am)
Low45 °F (Jun 9, 6:00 am)56% (Jun 6, 4:00 pm)29.38 "Hg (Jun 7, 11:00 am)
Average55 °F86%29.88 "Hg
* Reported Jun 4 9:00 am — Jun 19 9:00 am, 50°25'N, 4°06'W. Weather by CustomWeather, © 2019

Note: Actual official high and low records may vary slightly from our data, if they occured in-between our weather recording intervals... More about our weather records

Advertising

50°25'N, 4°06'W Weather History for the Previous 24 Hours

Scroll right to see more
 ConditionsComfort  
Time TempWeatherWind HumidityBarometerVisibility
9:00 am
Wed, Jun 19
57 °FDrizzle. Cloudy.6 mph99%29.80 "Hg1 mi
8:00 am57 °FRain showers. Cloudy.2 mph99%29.80 "Hg1 mi
7:00 am57 °FCool.1 mph98%29.78 "Hg3 mi
6:00 am56 °FRain showers. Cloudy.2 mph98%29.78 "Hg2 mi
5:00 am56 °FRain showers. Overcast.1 mph98%29.79 "Hg2 mi
4:00 am56 °FCool.3 mph98%29.79 "Hg2 mi
3:00 am56 °FCool.2 mph97%29.79 "Hg5 mi
2:00 am56 °FCool.3 mph97%29.80 "Hg3 mi
1:00 am56 °FCool.2 mph95%29.81 "Hg4 mi
12:00 am57 °FCool.3 mph96%29.82 "Hg4 mi
11:00 pm
Tue, Jun 18
57 °FRain. Overcast.1 mph94%29.84 "Hg4 mi
10:00 pm58 °FLight rain. Overcast.2 mph92%29.85 "Hg4 mi
9:00 pm58 °FLight rain. Cloudy.5 mph89%29.85 "Hg9 mi
8:00 pm60 °FLight rain. Cloudy.3 mph87%29.86 "Hg7 mi
7:00 pm60 °FRain showers. Cloudy.6 mph83%29.87 "Hg10 mi
6:00 pm60 °FRain showers. Cloudy.8 mph82%29.87 "Hg14 mi
5:00 pm61 °FCool.7 mph82%29.87 "Hg13 mi
4:00 pm59 °FCool.8 mph84%29.88 "Hg13 mi
3:00 pm58 °FRain showers. Cloudy.8 mph85%29.90 "Hg8 mi
2:00 pm58 °FLight rain. Cloudy.7 mph88%29.91 "Hg6 mi
1:00 pm58 °FLight rain. Cloudy.7 mph86%29.93 "Hg10 mi
12:00 pm58 °FLight rain. Cloudy.7 mph84%29.93 "Hg18 mi
11:00 am60 °FLight rain. Cloudy.6 mph75%29.93 "Hg8 mi
10:00 am60 °FCool.3 mph83%29.94 "Hg13 mi
Weather by CustomWeather, © 2019

See weather overview